TimePST,TemperatureF,Dew PointF,Humidity,Sea Level PressureIn,VisibilityMPH,Wind Direction,Wind SpeedMPH,Gust SpeedMPH,PrecipitationIn,Events,Conditions,WindDirDegrees,DateUTC
12:53 AM,19.0,6.1,57,30.18,10.0,North,-9999.0,-,N/A,,Clear,0,2013-01-06 08:53:00
1:53 AM,23.0,6.1,48,30.12,10.0,North,-9999.0,-,N/A,,Clear,0,2013-01-06 09:53:00
2:53 AM,27.0,8.1,45,30.12,10.0,North,-9999.0,-,N/A,,Clear,0,2013-01-06 10:53:00
3:53 AM,28.0,8.1,43,30.15,10.0,North,-9999.0,-,N/A,,Partly Cloudy,0,2013-01-06 11:53:00
4:53 AM,15.1,9.0,77,30.24,10.0,North,-9999.0,-,N/A,,Scattered Clouds,0,2013-01-06 12:53:00
5:53 AM,12.9,7.0,77,30.26,10.0,North,-9999.0,-,N/A,,Clear,0,2013-01-06 13:53:00
6:53 AM,12.0,7.0,80,30.27,10.0,North,-9999.0,-,N/A,,Clear,0,2013-01-06 14:53:00
7:53 AM,12.9,7.0,77,30.27,10.0,North,-9999.0,-,N/A,,Mostly Cloudy,0,2013-01-06 15:53:00
8:53 AM,15.1,8.1,74,30.25,10.0,North,-9999.0,-,N/A,,Overcast,0,2013-01-06 16:53:00
9:53 AM,19.9,9.0,62,30.21,10.0,North,-9999.0,-,N/A,,Clear,0,2013-01-06 17:53:00
10:53 AM,21.9,9.0,58,30.19,10.0,North,-9999.0,-,N/A,,Clear,0,2013-01-06 18:53:00
11:53 AM,27.0,10.9,51,30.10,10.0,North,-9999.0,-,N/A,,Clear,0,2013-01-06 19:53:00
12:53 PM,28.0,10.9,49,30.05,10.0,North,-9999.0,-,N/A,,Clear,0,2013-01-06 20:53:00
1:53 PM,30.0,14.0,51,30.02,10.0,North,-9999.0,-,N/A,,Clear,0,2013-01-06 21:53:00
2:53 PM,30.9,14.0,50,30.00,10.0,North,-9999.0,-,N/A,,Clear,0,2013-01-06 22:53:00
3:53 PM,30.0,10.9,45,30.01,10.0,North,-9999.0,-,N/A,,Partly Cloudy,0,2013-01-06 23:53:00
4:53 PM,25.0,12.9,60,30.10,10.0,North,-9999.0,-,N/A,,Partly Cloudy,0,2013-01-07 00:53:00
5:53 PM,21.0,10.9,65,30.13,10.0,North,-9999.0,-,N/A,,Partly Cloudy,0,2013-01-07 01:53:00
6:53 PM,18.0,10.0,71,30.18,10.0,North,-9999.0,-,N/A,,Scattered Clouds,0,2013-01-07 02:53:00
7:53 PM,17.1,10.0,74,30.19,10.0,North,-9999.0,-,N/A,,Clear,0,2013-01-07 03:53:00
8:53 PM,6.1,1.9,83,30.26,10.0,North,-9999.0,-,N/A,,Clear,0,2013-01-07 04:53:00
9:53 PM,1.9,-0.9,88,30.25,10.0,North,-9999.0,-,N/A,,Clear,0,2013-01-07 05:53:00
10:53 PM,8.1,3.9,83,30.22,10.0,North,-9999.0,-,N/A,,Clear,0,2013-01-07 06:53:00
11:53 PM,1.9,-0.9,88,30.23,10.0,North,-9999.0,-,N/A,,Clear,0,2013-01-07 07:53:00